User: anonymous   Login
Location: Melbourne
(37.8170°S, 144.9670°E)
Time: 18:25:23
(UTC+10:00)
Language:

ADEOS Rocket - Orbit

View from above orbital plane
View from above orbital plane
View from above satellite
View from above satellite

Ground track
Ground track

The orbit data is extracted from the following two-line orbital elements,

1 24279U 96046C   15184.71698612 -.00000014  00000-0  29907-4 0  9995
2 24279 098.6970 208.9548 0299323 311.9394 158.8399 13.47027669928051
Epoch (UTC): 03 July 2015 17:12:27
Eccentricity: 0.0299323
inclination: 98.6970°
perigee height: 860 km
apogee height: 1306 km
right ascension of ascending node: 208.9548°
argument of perigee: 311.9394°
revolutions per day: 13.47027669
mean anomaly at epoch: 158.8399°
orbit number at epoch: 92805

The dashed part of the orbit path shows where the satellite is in the earth's shadow,  

DLR